Vorticity
3 5 3 15 13 9 8 6 7 4 4 7 12 16 6 17 20 8 4 5 8 16 20 20 15 17 12 9 11 -3 9 27 12 22 11 8 15 3 9 -7 -13 -2 14 5 36 1 22 8 5 4 -7 -0 -3 -8
-0 6 6 9 10 13 7 10 7 7 6 3 5 7 10 15 7 16 20 12 6 6 -3 6 13 17 19 15 12 11 -0 -4 -11 -5 -12 8 -8 -13 -2 1 17 14 2 -10 -15 -21 -34 -29 -6 8 11 8 10 7
12 10 7 9 11 13 -1 4 13 10 9 5 3 4 5 6 8 13 9 10 17 19 19 38 9 -14 13 15 9 11 10 14 12 14 10 13 8 11 -5 -1 23 15 24 -14 13 28 15 4 1 7 9 12 8 10
16 23 11 14 13 6 4 -0 3 6 9 6 2 3 8 8 6 4 6 6 8 8 24 45 12 44 3 -39 8 6 -0 1 12 11 9 6 4 18 -2 -5 -0 -4 -4 -7 2 26 22 20 11 13 17 15 14 14
11 16 6 15 15 11 12 5 4 5 5 6 7 9 9 8 10 10 9 8 6 10 -1 8 7 31 27 21 16 25 22 18 9 5 4 5 8 6 14 15 10 24 21 37 1 8 -5 8 12 16 17 14 10 9
2 8 5 6 8 11 10 7 7 7 5 5 6 6 5 8 8 14 14 15 9 2 6 9 -16 23 35 40 44 39 17 -2 5 21 18 13 14 8 14 -14 13 20 20 20 15 9 -7 22 18 12 11 10 9 11
2 7 3 6 5 3 5 5 9 10 10 9 7 6 7 6 8 12 3 7 12 8 10 31 30 23 -4 -17 7 7 7 9 6 5 5 12 13 20 3 9 1 27 35 38 25 9 25 13 10 8 14 9 8 11
4 6 4 5 4 4 5 12 10 8 9 9 8 9 8 10 8 11 8 9 8 9 23 22 -5 25 10 2 17 27 14 7 3 5 5 7 13 9 -4 16 14 8 -13 22 28 25 14 4 10 3 15 10 7 13
13 14 8 8 9 9 13 10 13 14 14 13 11 10 12 13 16 13 7 7 10 9 5 -15 -4 26 21 -1 -2 -9 3 18 32 21 21 33 8 -14 4 28 35 25 29 24 2 -9 -11 -3 13 10 14 9 11 13
19 19 18 18 19 19 19 18 15 14 14 13 13 13 14 26 12 9 21 11 31 34 21 21 30 13 15 -1 9 21 35 26 9 29 32 30 -15 15 28 26 -4 20 21 24 39 39 29 27 28 15 14 12 14 17
15 12 13 13 12 13 13 14 15 13 12 11 9 9 11 13 12 5 46 19 13 11 24 20 30 37 32 22 16 33 11 10 17 14 16 14 -17 13 10 -9 24 17 24 25 19 14 19 26 20 13 13 15 18 19
9 9 9 9 9 10 9 9 10 12 12 13 12 14 12 15 45 40 20 22 12 17 15 13 13 10 14 18 31 21 21 15 5 10 14 -5 -19 9 12 20 18 21 18 16 16 13 10 9 9 9 10 12 12 12
10 11 11 11 12 13 13 12 12 12 13 19 18 26 35 19 5 3 18 -1 -8 6 -4 3 1 1 11 26 23 11 14 11 14 16 1 -10 11 5 20 31 23 19 13 11 9 10 9 8 9 12 16 17 13 9
10 10 11 11 10 11 11 10 11 11 10 7 18 18 6 7 19 32 6 2 -0 5 11 8 7 15 7 22 29 8 12 10 12 5 10 41 1 15 19 25 15 13 10 8 6 7 8 10 13 13 12 11 9 9
10 10 9 8 11 12 11 10 11 13 13 9 7 14 24 8 -4 -25 -26 -11 -21 -23 2 8 18 21 14 11 20 13 13 16 9 -9 -2 -7 -13 -9 -10 15 21 12 8 6 7 7 6 5 3 6 1 -3 2 -1
9 10 8 11 10 9 12 15 16 12 10 10 -11 -21 -14 -4 -6 -0 9 16 19 15 7 11 8 25 23 19 17 -5 -3 -27 -23 -2 -6 -20 12 14 12 3 2 11 8 5 3 4 6 7 4 3 -0 -0 -11 19
11 9 9 17 14 15 17 19 13 19 14 -6 -6 8 14 11 6 -6 -12 -18 -20 -31 -9 15 15 -4 12 30 17 -2 -21 18 -0 1 18 17 3 9 10 -9 19 44 11 7 -1 -0 3 3 2 2 2 -2 -16 13
13 15 14 17 21 22 30 17 11 5 4 -0 -0 12 12 12 15 19 5 6 6 15 17 23 31 -5 -18 -42 -33 -24 5 -16 -11 -23 20 -0 20 9 13 15 -0 1 12 5 13 -1 -4 4 2 1 -0 -8 -0 10
13 14 19 19 10 10 7 10 13 -4 -10 12 8 14 9 5 6 7 10 -2 31 26 14 13 27 19 16 17 13 -2 -4 16 18 4 -0 19 14 4 9 4 11 4 26 -4 1 4 -4 -5 -9 -11 18 7 4 -0
12 12 13 11 7 7 11 18 12 13 15 18 20 17 13 14 13 14 10 9 -4 -16 3 -2 -1 -8 -14 -11 23 18 20 21 14 23 27 21 20 24 14 15 16 13 4 6 8 12 19 15 15 23 17 20 11 21
13 15 15 12 11 9 10 -12 -1 7 33 36 29 31 22 21 16 17 18 19 23 13 13 12 15 15 27 39 6 11 15 -18 -8 7 13 14 18 13 14 13 14 15 13 22 12 8 5 11 13 14 20 14 11 18
11 14 15 11 12 13 11 3 -2 -5 -0 -9 6 -0 -4 6 11 1 -0 -3 15 22 20 15 8 7 15 10 12 14 20 13 4 2 16 2 14 20 15 12 12 13 14 16 9 5 9 17 21 19 12 6 13 12
12 12 12 11 13 22 8 16 18 9 8 7 12 -3 -7 -18 -5 33 34 17 11 5 2 18 23 23 13 -6 10 28 21 30 19 7 11 12 3 10 16 15 14 11 12 14 9 15 24 25 26 20 20 22 19 15
11 13 11 17 17 28 22 2 5 6 6 10 11 12 14 22 27 27 4 -12 -2 7 10 3 3 18 27 21 21 22 24 29 27 24 18 17 12 18 28 21 14 11 12 15 17 21 20 21 13 31 14 12 13 13
11 13 30 8 12 62 40 9 10 14 -2 7 14 5 -0 18 12 31 -0 3 15 8 3 4 38 34 24 21 12 7 21 17 7 14 11 -0 3 20 -8 24 35 34 21 16 14 14 12 8 14 22 18 19 23 20
19 24 -11 -7 20 45 15 9 9 6 18 22 13 14 18 12 19 4 -1 6 14 14 42 31 21 33 29 22 34 33 14 -13 6 13 9 10 19 11 27 36 23 26 21 13 14 17 16 23 21 16 22 26 23 23
22 -15 -8 8 20 9 -6 -10 -5 12 6 7 2 18 31 22 5 7 28 24 36 36 38 -3 -6 12 9 4 10 -1 -7 -1 10 5 8 3 -0 4 3 2 16 12 -8 33 36 17 15 16 27 41 28 16 14 13
-1 -3 -9 -4 8 10 -0 -0 10 -1 -4 -4 4 -10 4 -1 23 12 9 -4 -3 -12 -29 10 24 -2 1 3 3 10 14 13 12 2 2 5 6 2 7 2 23 9 3 11 25 41 33 21 13 10 11 11 11 11
7 12 16 10 17 8 -8 -8 -2 -2 -0 4 10 8 -25 5 29 12 4 18 6 28 36 19 14 12 12 1 6 7 9 9 5 5 13 13 12 16 4 6 21 6 21 -11 36 11 7 9 11 11 13 14 16 13
4 25 14 1 8 5 14 22 12 12 9 15 14 9 3 9 7 12 15 14 18 13 -0 -8 10 13 11 8 4 9 5 13 15 12 5 9 14 21 22 -6 18 20 23 4 19 29 13 13 10 11 10 12 13 15
8 10 12 22 18 16 2 9 15 18 15 7 29 33 26 19 12 14 9 9 10 10 8 12 5 5 11 17 16 16 12 12 13 13 15 12 17 16 22 7 16 16 23 12 -1 25 18 10 11 16 19 12 16 6
7 10 11 9 -9 9 12 10 10 14 6 3 -4 15 21 18 20 17 25 22 10 6 6 22 27 24 15 18 29 22 17 18 16 17 13 13 12 12 16 10 15 20 15 23 7 -1 32 5 1 17 16 20 1 5
8 22 15 5 1 10 18 25 6 1 16 18 23 19 16 9 10 27 32 21 21 -0 19 15 11 21 21 16 22 19 22 22 16 15 12 13 15 20 19 17 13 16 20 18 17 -0 8 38 10 15 21 19 5 5
Height
3106 3106 3106 3106 3106 3105 3104 3104 3103 3102 3101 3098 3095 3093 3090 3089 3090 3089 3087 3086 3086 3085 3085 3084 3084 3084 3083 3082 3081 3081 3081 3078 3077 3075 3074 3074 3070 3069 3065 3063 3061 3062 3061 3058 3059 3059 3045 3039 3040 3041 3038 3035 3034 3032
3099 3098 3099 3100 3101 3100 3100 3100 3099 3098 3098 3096 3093 3091 3091 3088 3086 3085 3085 3084 3082 3081 3082 3080 3080 3078 3078 3077 3077 3076 3078 3077 3077 3075 3073 3070 3067 3064 3061 3058 3055 3054 3051 3050 3048 3039 3036 3035 3033 3032 3029 3028 3026 3024
3092 3093 3092 3092 3094 3095 3095 3095 3094 3095 3093 3093 3091 3089 3087 3086 3085 3083 3081 3079 3079 3076 3077 3075 3074 3074 3072 3072 3072 3071 3071 3071 3070 3070 3068 3066 3061 3059 3055 3050 3048 3046 3047 3041 3039 3031 3032 3029 3026 3025 3022 3020 3018 3015
3085 3085 3085 3084 3086 3089 3089 3089 3087 3090 3089 3088 3088 3087 3085 3083 3082 3080 3078 3076 3074 3071 3069 3070 3069 3068 3067 3065 3067 3065 3065 3063 3064 3063 3061 3058 3055 3055 3047 3045 3039 3040 3038 3032 3027 3023 3022 3021 3019 3018 3016 3014 3012 3010
3078 3079 3079 3078 3079 3081 3083 3083 3081 3081 3082 3082 3081 3081 3081 3080 3078 3077 3076 3073 3070 3071 3065 3063 3063 3065 3063 3061 3059 3057 3057 3057 3057 3054 3052 3049 3047 3046 3041 3034 3019 3027 3027 3024 3020 3020 3016 3013 3010 3009 3009 3008 3006 3005
3069 3071 3073 3073 3073 3074 3076 3077 3077 3075 3075 3074 3074 3073 3073 3073 3072 3072 3071 3070 3067 3065 3061 3057 3055 3056 3054 3053 3052 3052 3051 3051 3051 3048 3045 3041 3041 3042 3032 3018 3012 3016 3016 3017 3014 3014 3010 3007 3005 3003 3002 3001 2999 2998
3060 3062 3064 3066 3068 3068 3069 3069 3070 3070 3069 3068 3067 3067 3066 3066 3065 3065 3066 3063 3061 3061 3058 3054 3048 3048 3048 3048 3047 3047 3045 3044 3043 3041 3036 3036 3035 3034 3022 3011 3012 3012 3008 3006 3006 3005 3002 3001 3000 2998 2996 2995 2993 2991
3051 3053 3055 3056 3058 3059 3060 3062 3062 3061 3061 3061 3061 3060 3060 3060 3061 3059 3057 3056 3055 3054 3053 3052 3046 3043 3044 3042 3042 3040 3038 3036 3034 3032 3028 3026 3027 3021 3008 3006 3006 3004 3000 2999 2997 2996 2996 2995 2994 2992 2990 2988 2987 2985
3040 3044 3046 3046 3048 3049 3051 3052 3053 3053 3054 3053 3054 3053 3053 3053 3053 3052 3050 3048 3047 3051 3046 3044 3046 3041 3035 3035 3036 3035 3033 3030 3024 3020 3018 3019 3015 3002 3003 3000 2997 2995 2990 2989 2990 2988 2988 2988 2987 2986 2984 2982 2980 2979
3030 3034 3037 3037 3039 3040 3042 3043 3044 3046 3048 3047 3048 3048 3044 3046 3045 3045 3041 3040 3036 3034 3032 3036 3036 3033 3035 3032 3031 3032 3024 3024 3017 3015 3012 3006 3005 3003 2999 2994 2991 2987 2984 2980 2979 2980 2981 2980 2978 2979 2980 2978 2975 2973
3021 3027 3030 3031 3032 3034 3034 3035 3037 3038 3040 3041 3040 3041 3041 3038 3039 3038 3035 3032 3030 3028 3027 3026 3027 3027 3029 3028 3029 3029 3022 3020 3014 3012 3012 3001 3001 2998 2995 2992 2987 2983 2978 2976 2976 2976 2976 2975 2975 2975 2974 2972 2970 2968
3014 3019 3023 3025 3026 3027 3026 3027 3030 3031 3032 3033 3034 3034 3034 3035 3033 3033 3026 3024 3025 3026 3024 3024 3024 3024 3025 3025 3023 3023 3020 3016 3011 3007 3005 2997 3000 2994 2990 2986 2983 2980 2977 2974 2975 2974 2974 2974 2972 2972 2970 2968 2966 2965
3008 3011 3015 3016 3020 3022 3020 3020 3023 3025 3026 3027 3028 3028 3029 3030 3024 3019 3017 3019 3020 3022 3022 3022 3023 3023 3022 3022 3021 3021 3016 3012 3007 3002 2997 2994 2990 2988 2985 2982 2978 2977 2976 2975 2973 2973 2972 2972 2971 2969 2967 2966 2964 2962
3002 3004 3007 3008 3011 3015 3014 3016 3018 3018 3022 3023 3023 3023 3022 3017 3012 3013 3015 3017 3018 3018 3018 3018 3019 3019 3017 3017 3017 3015 3012 3009 3003 2998 2990 2991 2988 2985 2981 2979 2977 2975 2975 2973 2972 2971 2971 2971 2968 2966 2964 2962 2959 2957
2995 2998 2999 3002 3005 3007 3009 3010 3011 3012 3013 3018 3019 3012 3004 3005 3010 3012 3013 3013 3014 3013 3013 3013 3013 3013 3011 3011 3009 3006 3005 3000 2995 2991 2989 2987 2985 2984 2981 2980 2977 2975 2973 2972 2970 2967 2966 2967 2966 2963 2960 2957 2956 2954
2988 2988 2990 2995 2997 2999 3001 3002 3004 3006 3004 3008 3005 2998 2996 2999 3001 3005 3007 3008 3009 3008 3007 3008 3007 3005 3002 3000 2999 2997 2994 2990 2990 2989 2986 2983 2981 2981 2980 2978 2976 2972 2969 2968 2965 2963 2961 2960 2958 2956 2954 2951 2948 2946
2979 2980 2985 2985 2988 2991 2992 2995 2996 2995 2997 2993 2987 2989 2988 2989 2991 2996 2998 3000 3003 3002 3002 3001 2998 2997 2994 2989 2987 2984 2982 2984 2985 2983 2981 2979 2975 2975 2970 2970 2969 2966 2963 2960 2958 2956 2953 2952 2950 2947 2945 2940 2938 2936
2972 2973 2975 2977 2978 2981 2982 2985 2985 2983 2980 2978 2979 2979 2979 2981 2983 2985 2986 2990 2992 2991 2989 2988 2986 2980 2980 2978 2976 2976 2977 2975 2974 2972 2972 2970 2968 2965 2962 2959 2959 2957 2955 2952 2950 2946 2944 2943 2940 2939 2936 2933 2927 2925
2963 2964 2967 2968 2971 2974 2973 2975 2974 2970 2966 2967 2969 2969 2970 2970 2973 2975 2976 2978 2979 2978 2977 2974 2970 2965 2964 2966 2965 2965 2964 2961 2959 2958 2956 2955 2954 2952 2948 2946 2944 2943 2943 2940 2937 2934 2932 2931 2928 2928 2925 2921 2915 2912
2955 2956 2959 2961 2963 2963 2964 2963 2961 2958 2955 2957 2958 2959 2960 2960 2962 2961 2965 2967 2966 2961 2960 2957 2953 2954 2956 2958 2958 2954 2951 2949 2946 2942 2940 2940 2940 2937 2934 2932 2930 2930 2928 2925 2922 2920 2918 2917 2916 2914 2910 2907 2903 2902
2944 2947 2951 2953 2954 2953 2952 2950 2948 2948 2948 2947 2950 2951 2950 2949 2947 2947 2948 2951 2948 2942 2939 2939 2941 2944 2946 2944 2945 2944 2940 2939 2936 2933 2928 2925 2926 2924 2921 2919 2919 2917 2912 2910 2907 2905 2904 2900 2900 2898 2895 2893 2891 2889
2936 2939 2941 2942 2943 2942 2939 2938 2938 2941 2942 2940 2940 2943 2940 2937 2936 2936 2936 2932 2927 2926 2928 2930 2930 2931 2930 2931 2931 2930 2926 2925 2923 2919 2918 2917 2913 2911 2908 2907 2903 2901 2899 2897 2893 2889 2888 2888 2886 2883 2881 2880 2878 2877
2929 2930 2931 2932 2933 2929 2928 2928 2931 2931 2931 2930 2932 2931 2929 2928 2927 2926 2919 2916 2914 2917 2919 2917 2917 2917 2917 2918 2917 2915 2913 2910 2906 2906 2906 2904 2901 2898 2893 2891 2890 2886 2883 2883 2879 2877 2876 2876 2873 2869 2867 2866 2865 2864
2920 2920 2921 2920 2919 2917 2916 2917 2919 2921 2919 2919 2918 2916 2915 2916 2916 2911 2905 2905 2905 2907 2906 2905 2905 2904 2904 2903 2900 2900 2899 2898 2894 2893 2893 2890 2887 2886 2881 2877 2875 2873 2871 2869 2867 2864 2863 2861 2859 2857 2855 2854 2852 2851
2911 2911 2910 2907 2906 2906 2905 2906 2907 2907 2905 2906 2908 2906 2906 2906 2901 2897 2893 2893 2894 2892 2894 2895 2895 2892 2889 2888 2887 2887 2888 2885 2883 2880 2881 2878 2875 2873 2870 2866 2861 2860 2861 2857 2854 2851 2850 2850 2849 2846 2844 2842 2841 2841
2897 2896 2896 2896 2896 2897 2896 2895 2894 2893 2895 2896 2895 2896 2895 2893 2891 2885 2882 2883 2881 2883 2884 2883 2882 2879 2876 2876 2876 2876 2878 2875 2872 2871 2870 2869 2866 2865 2861 2855 2852 2852 2851 2847 2845 2842 2841 2840 2837 2835 2833 2832 2832 2833
2883 2883 2884 2886 2887 2889 2889 2886 2887 2887 2885 2885 2884 2884 2883 2880 2875 2872 2872 2873 2873 2873 2872 2874 2873 2871 2869 2868 2867 2867 2867 2866 2864 2862 2859 2858 2857 2856 2852 2847 2844 2843 2840 2837 2835 2831 2830 2828 2827 2826 2824 2825 2826 2828
2872 2874 2874 2876 2876 2877 2875 2875 2875 2875 2875 2874 2873 2871 2870 2866 2863 2862 2863 2865 2864 2864 2863 2864 2864 2862 2860 2859 2858 2856 2855 2855 2853 2851 2848 2846 2846 2845 2843 2840 2836 2833 2832 2830 2826 2823 2821 2820 2820 2820 2820 2821 2823 2824
2859 2861 2862 2860 2863 2862 2861 2862 2861 2860 2862 2861 2859 2856 2854 2853 2851 2851 2850 2853 2852 2851 2849 2848 2848 2849 2847 2846 2845 2844 2842 2841 2840 2837 2835 2832 2831 2834 2834 2829 2826 2824 2823 2822 2819 2818 2816 2815 2815 2815 2815 2817 2818 2818
2847 2849 2850 2851 2851 2848 2848 2848 2845 2847 2847 2846 2844 2840 2835 2832 2835 2840 2838 2837 2836 2835 2835 2835 2835 2834 2833 2832 2830 2829 2829 2829 2828 2826 2822 2818 2816 2819 2821 2818 2816 2815 2814 2813 2811 2810 2810 2809 2809 2809 2810 2810 2811 2810
2839 2840 2839 2838 2836 2835 2834 2834 2833 2832 2832 2829 2828 2823 2816 2817 2818 2819 2820 2820 2821 2822 2821 2820 2820 2821 2819 2818 2818 2816 2811 2814 2813 2811 2809 2806 2805 2806 2807 2806 2805 2804 2804 2804 2804 2803 2803 2803 2803 2803 2802 2803 2804 2806
2829 2829 2828 2826 2824 2824 2825 2822 2821 2818 2817 2814 2811 2809 2804 2801 2793 2798 2805 2807 2806 2805 2807 2808 2807 2805 2805 2803 2801 2800 2799 2796 2795 2796 2796 2795 2794 2794 2794 2794 2793 2794 2795 2796 2796 2795 2796 2797 2797 2797 2796 2797 2799 2801
2818 2818 2817 2816 2813 2810 2810 2810 2806 2802 2800 2796 2794 2793 2790 2786 2779 2784 2789 2793 2793 2793 2793 2793 2793 2792 2790 2788 2786 2784 2783 2782 2782 2783 2784 2783 2781 2782 2782 2783 2783 2783 2785 2787 2787 2787 2787 2788 2790 2791 2791 2792 2792 2794